EHI
1 1 1 2 3 2 1 1 1 1 3 5 5 3 1 0 0 0 0 0 0 0 0 0 0 0 0 0 0 0 0 0 0 0 0 0 0 0 0 0 0 0 0
1 1 2 3 3 2 1 0 0 1 3 5 5 4 2 1 1 1 0 0 0 0 0 0 0 0 0 0 0 0 0 0 0 0 0 0 0 0 0 0 0 0 0
1 2 2 2 2 2 1 1 0 1 3 5 5 4 3 3 2 2 1 0 0 0 0 0 0 0 0 0 0 0 0 0 0 0 0 0 0 0 0 0 0 0 0
0 1 1 1 1 2 2 2 0 1 2 4 5 4 3 3 3 2 1 0 0 0 0 0 0 0 0 0 0 0 0 0 0 0 0 0 0 0 0 0 0 0 0
0 0 0 0 0 1 2 1 0 1 2 3 4 4 4 3 2 1 0 0 0 0 0 0 0 0 0 0 0 0 0 0 0 0 0 0 0 0 0 0 0 0 0
0 0 0 0 0 1 1 1 1 2 3 3 3 4 4 4 2 1 1 2 1 1 0 0 0 0 0 0 0 0 0 0 0 0 0 0 0 0 0 0 0 0 0
0 0 0 1 1 1 1 1 2 3 3 3 3 3 3 4 3 2 2 2 2 2 1 0 0 0 0 0 0 0 0 0 0 0 0 0 0 0 0 0 0 0 0
0 0 0 1 2 2 1 1 3 3 3 3 3 3 3 3 3 2 2 1 2 2 2 1 1 0 0 0 0 0 0 0 0 0 0 0 0 0 0 0 0 0 0
1 1 0 1 2 2 2 3 3 3 3 3 3 3 4 3 3 3 2 1 1 2 3 3 2 1 1 0 0 0 0 0 0 0 0 0 0 0 0 0 0 0 0
2 1 0 0 1 1 2 3 3 3 3 3 3 3 4 4 3 3 2 1 1 2 3 3 3 3 2 1 0 0 0 0 0 0 0 0 0 0 0 0 0 0 0
1 1 0 0 0 0 1 1 2 3 3 2 2 3 4 3 3 4 3 2 1 1 2 3 3 3 2 1 0 0 0 0 0 0 0 0 0 0 0 0 0 0 0
0 0 1 1 0 0 0 0 1 2 2 2 2 3 3 3 4 5 5 4 2 1 1 1 2 2 2 1 0 0 0 0 0 0 0 0 0 0 0 0 0 0 0
0 1 2 2 1 0 0 0 1 1 2 3 3 3 3 3 3 4 5 5 3 1 0 0 1 1 1 0 0 0 0 0 0 0 0 0 0 0 0 0 0 0 0
1 1 3 2 1 0 0 1 1 2 2 3 3 3 3 3 3 3 3 4 4 3 2 0 0 0 0 1 1 1 0 0 0 0 0 0 0 0 0 0 0 0 0
2 2 3 3 1 0 0 1 2 2 2 2 3 3 3 3 3 2 2 3 4 5 4 2 1 1 1 1 2 2 1 1 0 0 0 0 0 0 0 0 0 0 0
1 1 2 2 2 1 1 2 3 2 1 1 2 3 4 4 3 2 2 3 4 5 4 3 2 2 1 1 1 2 2 2 1 0 0 0 0 0 0 0 0 0 0
0 0 1 1 2 1 1 1 2 2 1 0 1 3 4 5 4 4 3 3 3 4 4 4 3 2 1 0 0 1 2 2 1 0 0 0 0 0 0 0 0 0 0
0 0 0 0 1 1 0 1 2 1 0 0 0 1 4 5 5 5 4 4 3 3 4 5 4 2 1 0 0 1 1 1 0 0 0 0 0 0 0 1 1 1 0
0 0 0 0 0 0 1 2 2 1 0 0 0 1 3 4 4 5 5 5 5 5 6 6 4 3 2 0 0 0 0 0 0 0 0 0 0 0 0 1 2 2 1
0 0 0 0 0 0 1 2 3 2 1 1 1 1 3 4 4 5 6 7 7 7 8 7 5 4 3 1 0 0 0 0 0 0 0 0 0 0 0 1 2 2 1
0 0 0 0 0 0 1 2 3 2 1 1 1 1 2 4 5 7 7 7 7 8 9 8 6 4 3 1 0 0 1 0 0 0 0 0 0 0 0 1 1 1 0
0 0 0 0 0 0 0 1 2 1 1 1 1 0 0 2 4 6 7 6 6 7 8 8 6 4 2 1 0 0 0 0 0 0 0 0 0 0 0 0 0 0 0
0 0 0 0 0 0 0 0 1 1 0 0 0 0 0 0 1 3 4 5 5 5 5 5 4 3 3 1 0 0 0 0 0 0 0 0 0 0 0 0 0 0 0
0 0 0 0 0 0 0 0 0 0 0 0 0 0 0 0 0 1 3 3 4 4 4 3 3 3 3 2 0 0 0 0 0 0 0 0 0 0 0 0 0 0 0
0 0 0 0 0 0 0 0 0 0 0 0 0 0 0 0 0 1 2 3 2 2 2 2 2 2 2 1 0 0 0 0 0 0 0 0 0 0 0 0 0 0 0
0 0 0 0 0 0 0 0 0 0 0 0 0 0 0 0 0 1 2 2 1 1 1 1 1 1 1 0 0 0 0 0 0 0 0 0 0 0 0 0 0 0 0
Wind_Speed
6 6 6 6 5 4 5 4 5 5 4 3 3 3 3 2 2 2 2 3 2 2 2 2 2 2 2 2 2 2 3 2 1 2 2 3 3 4 3 3 4 5 5
6 6 7 7 6 5 5 5 5 5 5 3 3 2 2 2 1 1 2 2 2 2 2 3 2 2 2 2 2 2 1 1 0 0 0 1 3 2 3 3 3 3 3
5 6 7 7 6 6 6 5 5 5 5 5 3 3 3 2 3 2 2 2 2 3 2 2 2 2 2 2 2 2 2 1 1 1 2 1 1 2 2 3 2 3 2
4 5 6 6 6 6 5 6 5 5 6 5 4 4 3 3 3 2 2 2 2 2 3 3 3 3 2 3 3 3 2 1 1 1 1 2 2 1 1 2 2 2 2
3 4 5 5 5 5 5 5 5 5 6 6 5 5 4 3 2 3 3 3 2 3 3 3 3 3 3 3 3 3 2 2 1 1 1 0 0 2 1 0 1 1 1
2 3 3 4 3 3 4 4 5 5 6 6 6 6 5 4 4 4 3 3 3 3 4 3 3 3 3 3 3 3 3 3 2 2 2 1 1 1 1 1 0 0 1
2 3 3 3 3 3 4 5 5 5 6 6 6 6 6 5 5 4 4 3 3 3 4 4 4 3 3 3 3 3 3 3 3 3 2 2 2 1 1 2 1 0 0
2 2 2 3 3 4 4 4 4 5 5 5 5 5 5 4 3 4 3 3 3 3 4 4 4 4 4 4 3 3 3 3 3 3 3 2 2 2 2 2 2 2 1
2 2 2 2 3 3 4 4 4 4 4 5 4 4 4 4 3 3 4 3 3 3 4 5 5 5 5 5 4 3 3 3 3 3 3 3 2 3 3 3 3 3 2
2 2 2 2 2 2 2 3 3 4 4 4 4 4 4 4 3 3 3 4 3 3 4 5 5 5 5 5 4 4 4 4 3 2 3 3 2 2 2 3 3 3 3
2 2 2 2 2 2 2 2 2 3 3 4 4 5 4 4 4 4 4 3 4 4 4 5 5 5 5 5 5 5 5 5 4 4 4 4 3 3 3 3 3 3 3
2 2 2 2 2 1 1 1 1 2 2 3 4 4 4 4 5 5 4 4 4 4 5 5 5 5 5 5 5 5 5 5 5 5 5 5 3 5 4 3 4 3 4
2 2 2 2 1 1 0 1 0 1 1 2 3 3 3 4 4 4 4 4 4 4 4 5 5 5 6 5 5 5 5 6 6 6 6 5 5 5 4 5 5 4 4
2 2 1 2 2 1 0 0 0 1 1 1 1 2 2 3 3 4 4 4 4 4 4 5 5 5 6 6 6 6 5 6 6 6 6 6 6 6 6 5 5 4 4
1 1 0 1 1 1 1 1 1 0 1 1 1 1 1 2 2 3 3 3 3 4 4 5 5 4 5 4 5 5 6 6 6 6 6 5 4 4 4 4 5 5 5
1 1 1 1 1 1 1 1 1 0 0 1 1 1 2 1 2 2 2 2 3 4 4 4 4 5 4 2 4 6 6 6 6 6 6 5 5 5 6 6 6 6 6
1 1 2 2 2 1 1 1 1 0 0 1 1 2 2 2 2 2 2 2 3 3 4 4 4 4 3 2 4 7 7 6 6 6 5 4 4 5 6 7 9 8 8
2 2 2 3 2 2 1 1 1 1 1 1 1 1 2 2 2 2 2 3 3 3 4 4 4 4 3 2 3 5 8 7 7 6 6 6 6 5 5 5 6 7 8
2 2 2 3 3 2 2 2 2 2 2 2 2 2 2 2 2 3 3 3 3 3 3 3 4 4 4 3 3 3 5 6 7 7 6 6 6 4 5 6 6 6 5
1 1 2 2 2 2 2 2 2 2 2 2 3 3 3 3 3 3 3 3 3 4 4 3 4 4 4 2 3 5 5 5 5 5 5 6 6 4 6 7 6 6 5
1 1 2 2 2 2 2 2 2 2 2 3 3 3 3 3 3 3 3 3 3 4 4 4 4 4 4 2 3 4 5 5 5 4 4 3 4 5 7 7 6 5 4
1 2 2 2 2 2 3 3 2 2 2 2 3 3 3 3 3 3 3 3 3 4 4 4 3 2 2 2 2 4 6 6 5 4 4 3 4 5 6 6 4 4 4
2 2 2 2 2 2 3 3 3 3 2 2 3 3 3 3 3 3 3 3 3 3 3 3 3 2 2 1 3 5 6 6 5 4 3 3 3 5 5 6 5 5 5
2 2 3 3 2 2 3 3 3 3 3 3 3 3 3 3 3 3 3 2 2 3 3 3 3 3 2 2 2 3 3 5 5 4 3 4 5 5 4 4 5 5 4
3 3 3 4 3 3 3 3 3 3 4 4 3 3 3 3 3 3 2 3 3 2 3 3 3 3 3 2 3 3 3 3 3 3 3 3 3 4 4 4 4 4 4
3 4 4 4 4 3 3 3 3 4 4 3 3 3 2 2 3 3 2 1 3 1 2 2 4 3 3 4 3 3 4 3 2 3 3 3 3 3 3 4 4 4 4
Wind_Direction
204 191 187 184 185 188 191 180 180 174 166 168 176 174 175 176 163 159 160 151 160 143 133 145 130 131 118 113 119 115 118 115 100 112 106 102 79 60 57 44 47 57 52
195 189 191 184 187 189 191 184 188 178 176 179 180 180 172 176 149 148 157 163 167 161 164 172 155 151 139 147 138 142 144 113 110 314 215 151 133 96 64 58 48 45 51
208 192 193 191 188 193 190 187 189 183 184 181 175 164 162 175 167 166 166 181 191 183 188 184 173 173 179 165 174 180 180 149 122 357 331 328 52 95 109 70 57 45 34
205 194 194 195 194 194 191 187 186 187 185 185 186 187 186 182 178 175 165 178 184 190 192 188 187 188 192 186 195 196 200 208 188 118 350 345 9 305 124 132 98 65 37
188 187 191 192 193 190 190 189 185 188 188 188 187 202 198 188 175 173 174 181 180 192 190 197 201 201 202 204 208 201 215 221 245 242 219 194 209 278 306 85 114 129 93
174 167 163 167 170 173 181 183 186 186 187 191 198 201 197 193 185 190 189 193 192 195 197 201 209 211 212 210 213 218 213 229 236 247 242 241 248 251 270 274 246 331 91
156 149 147 156 158 166 174 175 180 186 189 194 203 204 204 205 206 207 206 210 205 203 203 204 212 214 219 222 218 225 226 223 230 242 256 263 265 265 257 257 267 284 169
131 137 138 151 162 161 167 174 171 182 189 194 201 206 201 212 221 220 220 218 221 215 209 215 217 218 224 228 219 231 228 233 231 238 242 246 248 236 234 250 258 249 209
108 121 125 133 144 151 158 169 173 177 187 194 195 197 200 206 217 221 224 220 218 213 210 213 218 220 220 225 220 223 224 234 241 241 233 233 230 229 228 231 242 263 266
76 94 115 128 131 138 149 161 175 182 190 194 194 198 209 209 215 221 222 226 226 216 212 213 221 221 217 218 218 226 228 228 224 240 248 235 227 222 224 228 235 257 272
77 91 106 122 127 125 129 151 186 197 198 199 202 204 205 210 215 217 220 225 226 222 221 219 219 221 222 222 218 219 219 228 227 223 229 229 224 217 213 217 224 233 246
82 98 96 103 112 123 142 161 191 215 216 211 213 216 206 203 215 220 219 219 223 221 222 219 218 221 222 224 226 226 222 227 232 233 232 231 215 225 221 214 219 220 229
88 97 91 83 79 85 140 166 172 239 229 211 215 214 216 213 220 227 225 222 221 218 218 219 221 223 221 220 226 229 228 230 232 233 237 236 227 225 219 220 225 220 216
95 87 77 71 61 54 45 318 294 276 269 227 223 224 231 227 227 231 226 226 226 224 222 223 226 228 227 223 223 226 229 232 234 238 241 241 235 236 229 223 227 222 216
123 128 86 27 21 25 26 330 296 300 280 258 248 250 242 229 233 233 229 227 231 236 233 226 224 228 234 233 234 232 233 234 234 239 245 247 248 261 254 246 234 222 220
233 289 316 324 332 354 335 273 270 305 290 275 273 273 259 246 239 241 240 236 236 241 237 231 226 226 230 234 244 251 239 237 238 240 243 236 225 226 222 234 247 247 235
262 286 309 321 321 306 278 275 292 273 244 262 267 268 259 252 251 242 237 239 236 238 243 241 237 234 225 202 230 243 247 240 242 245 245 239 230 226 230 215 218 229 239
282 301 315 318 313 302 272 234 233 236 238 255 268 274 278 272 261 254 251 247 244 236 241 248 246 244 240 205 228 240 242 243 241 241 244 240 234 220 230 232 229 230 225
299 307 312 310 304 299 276 247 234 238 246 261 272 276 273 269 267 267 266 264 260 251 248 248 246 246 242 205 220 232 249 246 244 241 239 240 239 214 218 230 234 236 232
310 329 320 316 313 306 266 246 240 238 248 264 273 277 274 262 262 267 272 274 267 263 258 252 249 252 259 211 203 224 245 248 247 242 237 229 240 213 208 229 234 236 236
313 315 305 305 312 298 267 259 262 265 278 281 277 273 270 264 261 266 267 269 269 269 265 260 254 256 267 239 202 221 249 253 253 242 235 224 202 213 222 237 244 244 250
274 284 286 295 302 291 270 266 276 290 287 282 279 279 279 278 272 265 266 265 265 264 263 263 258 256 250 248 229 224 248 269 258 255 248 225 180 206 221 230 240 236 242
276 278 281 287 287 282 276 273 285 288 277 268 268 272 277 276 279 271 261 262 261 263 268 266 262 259 260 239 224 233 246 256 254 258 272 261 218 222 222 218 213 217 229
273 272 272 275 277 278 276 280 281 271 262 259 265 269 272 278 283 280 269 262 257 259 260 262 267 270 272 285 279 255 242 236 244 249 232 217 222 231 238 223 210 222 228
272 268 267 268 267 267 271 276 276 263 257 258 261 264 269 276 279 277 279 270 272 283 273 271 274 278 276 298 311 285 272 269 268 268 249 236 227 224 221 221 224 228 223
272 268 269 268 265 261 266 269 265 259 259 261 265 266 266 267 266 270 268 247 256 282 267 288 288 283 293 315 306 278 276 276 262 250 244 239 237 239 237 234 230 230 232